Location: Unspecified
(44.8237°N, 0.6475°W)
Time: 13:08:59
(UTC+02:00)

ISS - Visible Passes

Search period start: 01 October 2022 00:00
Search period end: 11 October 2022 00:00
Orbit: 414 x 417 km, 51.6° (Epoch: 01 October)

Date Brightness Start Highest point End Pass type
(mag) Time Alt. Az. Time Alt. Az. Time Alt. Az.
01 Oct -3.4 20:30:07 10° NW 20:33:24 52° NNE 20:35:58 15° E visible
01 Oct -1.4 22:07:05 10° W 22:08:51 22° WSW 22:08:51 22° WSW visible
02 Oct -2.9 21:18:03 10° WNW 21:21:17 44° SW 21:22:08 35° S visible
03 Oct -3.6 20:29:07 10° WNW 20:32:29 74° SSW 20:35:29 12° SE visible
03 Oct -0.7 22:07:42 10° WSW 22:08:23 11° SW 22:08:23 11° SW visible
04 Oct -1.3 21:17:36 10° W 21:19:59 18° SW 21:21:50 13° S visible
05 Oct -2.0 20:28:16 10° WNW 20:31:15 30° SW 20:34:12 10° SSE visible
07 Oct -0.7 20:28:16 10° WSW 20:29:42 12° SW 20:31:08 10° SSW visible
